Theta_e
316 320 330 334 345 348 349 349 349 350 349 345 344 348 349 352 352 355 346 347 345 345 344 344 344 343 342 336 332 333 333 336 341 341 340 340 340 344 345 343 346 345 345 346 345 345 342 336 341
314 328 330 340 347 346 348 346 349 350 348 347 347 348 351 356 349 347 347 347 346 345 344 343 344 342 339 329 323 321 323 329 330 328 327 330 340 343 338 340 341 344 344 343 343 343 343 339 335
326 327 333 343 344 347 347 348 350 348 348 348 347 346 349 353 347 347 347 347 346 344 343 343 344 341 333 322 320 321 325 325 325 327 331 334 340 338 340 341 340 342 340 338 334 332 332 332 332
323 325 327 341 346 344 345 350 347 350 348 347 345 350 349 348 347 348 348 346 343 341 343 344 343 338 326 323 320 322 323 324 325 328 331 336 341 339 338 339 338 338 332 326 324 326 328 331 334
320 325 333 336 341 343 342 348 347 351 350 347 345 351 353 348 348 348 347 345 341 341 343 342 341 336 331 322 320 322 323 324 324 326 329 331 332 335 336 335 331 330 326 326 330 329 327 329 330
327 324 335 338 339 341 347 349 349 350 349 348 349 350 350 347 347 348 346 342 340 341 342 342 341 336 327 321 320 322 324 324 325 326 327 327 328 330 331 330 327 327 328 333 333 331 329 328 328
327 327 330 329 331 341 348 347 349 349 349 347 345 350 348 346 345 345 344 341 340 341 341 342 340 337 323 320 320 323 324 327 329 328 327 327 326 327 328 328 327 328 329 329 331 332 333 335 335
323 325 327 328 332 334 346 347 346 344 348 343 343 348 351 345 343 343 341 340 341 341 341 341 339 336 336 332 320 322 326 328 330 330 330 329 329 328 327 327 325 329 329 328 328 329 330 333 331
318 326 328 327 328 338 346 348 345 345 346 344 344 344 344 342 342 341 339 339 338 341 341 340 338 336 334 333 326 323 326 331 332 332 332 332 332 332 333 329 324 328 330 329 326 327 330 331 333
323 326 327 324 329 341 346 347 346 349 345 347 346 344 343 341 339 337 336 336 337 339 340 339 339 334 333 332 333 331 331 334 335 335 334 334 333 333 333 333 330 328 330 330 325 327 327 332 336
321 326 323 324 324 338 347 347 346 348 346 347 345 347 343 340 338 335 334 334 336 339 339 339 338 333 333 332 333 331 329 330 331 334 334 335 335 335 335 334 335 335 331 334 329 329 330 336 335
325 323 324 323 332 344 347 346 348 345 344 343 343 344 343 342 340 339 337 337 337 339 338 339 338 334 327 332 331 331 328 326 330 333 334 336 337 337 337 335 334 336 334 334 330 330 327 335 336
323 322 320 321 333 344 345 347 347 346 343 343 343 344 344 343 342 341 340 338 337 338 338 339 337 330 324 322 331 327 326 328 332 335 336 338 338 339 339 336 336 334 334 335 331 328 331 333 335
321 320 320 322 323 337 347 347 346 345 343 343 344 345 344 344 342 342 340 339 336 336 339 338 339 336 328 322 322 325 324 327 331 333 336 338 338 339 339 339 337 335 333 334 331 328 327 334 334
319 321 324 334 333 343 344 347 348 345 344 344 343 344 344 344 342 342 341 340 337 337 339 340 338 337 328 322 321 323 326 329 332 336 338 338 339 339 339 339 339 337 333 331 332 328 328 332 332
321 322 325 334 338 340 342 338 344 345 345 344 344 344 344 344 343 342 341 340 340 339 341 341 339 336 330 327 324 323 326 329 333 336 337 338 338 339 340 340 340 338 336 334 333 329 329 331 332
322 325 324 337 333 342 341 338 340 345 345 344 345 345 344 344 343 342 341 340 340 340 342 343 340 339 330 332 332 329 326 329 332 334 336 337 338 338 340 340 339 337 335 335 333 330 330 331 330
324 324 323 329 336 342 340 340 341 346 345 342 344 345 345 344 344 342 340 340 339 339 339 341 342 343 336 335 336 336 333 331 331 333 334 336 339 339 339 341 339 337 335 334 333 333 331 331 330
321 323 324 323 322 340 343 340 339 346 346 343 342 344 345 346 344 343 340 337 337 337 339 338 339 340 340 339 339 338 338 338 335 335 336 337 339 340 340 341 340 337 335 335 334 334 334 333 331
320 321 322 321 319 335 339 343 341 340 347 345 342 343 343 345 345 342 339 336 335 336 336 338 336 339 340 341 340 341 341 341 341 339 338 339 340 341 341 341 341 339 337 335 334 334 334 333 332
320 321 321 322 320 321 321 327 328 333 339 344 344 342 342 343 345 345 341 336 335 336 336 337 335 338 338 340 341 342 341 341 343 344 342 341 341 342 341 341 341 340 338 337 335 336 334 335 333
321 320 320 320 322 323 322 324 324 330 339 341 343 343 343 342 343 343 343 339 336 336 337 336 334 337 337 340 342 343 344 345 345 344 344 343 342 341 341 340 340 339 338 336 334 333 334 333 335
321 319 320 321 323 323 323 323 324 331 335 341 342 344 342 342 341 341 341 341 339 337 337 336 336 339 338 339 342 344 346 347 346 342 341 343 343 343 342 340 339 339 339 337 335 333 333 333 333
321 320 320 320 322 324 324 324 324 326 329 332 339 341 342 342 341 341 340 341 340 338 337 338 337 338 338 340 340 344 346 346 346 346 346 343 343 343 341 340 340 339 338 337 336 334 333 333 332
321 324 324 324 324 324 323 323 324 328 328 331 330 335 340 341 341 342 341 341 341 340 337 339 340 341 339 339 341 340 340 344 346 345 344 344 343 342 341 339 340 335 332 334 333 332 332 332 334
323 325 323 324 325 323 324 326 325 327 326 326 330 331 332 340 342 342 344 343 342 342 340 340 340 341 339 341 342 340 343 344 344 345 344 343 341 341 336 336 334 333 332 332 332 331 331 331 330
323 324 323 327 324 326 325 326 325 330 331 333 335 335 332 335 340 341 342 342 342 344 344 344 342 342 339 342 343 343 345 345 347 345 342 340 336 338 336 333 331 332 331 331 330 329 329 328 327
325 323 326 325 327 327 325 327 325 327 331 336 336 336 336 334 337 340 342 343 347 347 344 345 344 344 343 342 343 346 347 346 345 343 340 338 336 335 332 335 332 331 329 328 327 327 327 330 330
325 326 326 327 328 327 328 326 333 335 335 335 335 335 339 341 341 345 348 345 346 342 339 334 335 333 342 347 347 347 346 345 343 340 338 335 335 333 335 331 328 326 321 319 320 324 325 324 323
323 324 326 326 331 329 330 330 327 333 334 333 334 338 344 346 347 347 346 345 343 341 339 334 332 336 333 342 343 343 343 341 339 338 336 334 333 330 328 324 322 321 319 316 318 318 318 318 316
Wind_Speed
7 6 5 2 2 0 2 2 2 4 3 2 7 2 3 4 1 2 8 8 20 19 17 15 14 13 13 13 14 14 15 15 15 15 15 15 16 16 15 15 15 16 14 12 11 8 6 6 7
9 4 1 1 1 3 2 1 2 3 7 12 10 6 3 4 4 9 12 16 20 19 17 15 14 13 14 13 14 14 16 15 15 16 16 16 16 14 15 13 13 15 14 14 12 10 8 6 6
7 2 1 2 2 2 3 2 4 10 4 3 4 6 2 3 7 15 11 22 20 17 16 14 15 15 14 14 14 15 15 15 15 15 15 16 16 15 15 14 14 14 14 14 12 11 9 7 7
1 1 3 0 2 1 0 6 12 8 5 5 9 7 4 1 10 9 20 22 20 17 16 15 15 15 14 14 15 16 16 15 15 15 16 16 15 15 14 14 14 13 13 12 12 10 9 7 7
3 0 2 2 1 1 2 9 11 5 4 8 4 5 7 2 5 16 20 20 19 18 16 14 14 14 13 13 14 16 16 16 15 15 16 16 15 14 14 14 13 13 12 13 12 11 9 7 5
2 1 2 3 2 1 3 11 9 3 7 7 6 10 5 4 10 16 20 19 17 17 14 13 13 13 13 13 14 16 16 15 15 16 16 16 15 14 13 13 13 14 14 16 15 12 11 10 8
1 1 2 2 3 2 5 8 7 6 8 5 13 8 3 7 13 16 18 17 17 15 13 13 12 12 13 13 14 15 15 15 15 16 16 15 14 14 13 13 12 13 13 13 13 14 11 12 11
2 1 4 3 3 3 6 8 6 6 5 12 9 6 8 12 17 17 17 17 15 14 13 13 13 12 12 11 14 15 14 14 14 13 14 13 13 12 12 12 10 11 10 10 10 10 10 10 10
2 1 1 1 3 0 8 8 5 5 12 4 2 6 13 23 20 19 18 17 14 13 14 13 13 13 12 12 13 15 15 14 12 11 11 11 9 9 8 8 8 8 7 6 6 7 6 7 7
2 2 3 2 3 3 12 11 10 6 12 5 7 13 23 22 22 22 21 19 17 17 16 15 15 14 14 12 12 14 15 12 10 9 8 7 6 6 5 5 5 4 4 6 7 6 1 4 4
4 2 1 2 7 7 14 9 7 12 9 6 14 18 20 21 19 19 18 19 20 18 17 18 16 16 15 13 13 13 13 14 13 11 9 7 5 3 2 1 1 2 3 3 6 5 3 4 4
4 5 5 3 5 11 13 9 9 9 3 7 18 19 20 17 19 20 20 19 19 19 18 19 18 18 18 13 14 12 13 15 13 11 9 6 4 3 2 2 3 2 2 2 4 4 5 4 4
6 5 6 6 7 11 12 11 5 10 7 13 19 18 18 18 21 18 16 16 18 19 19 20 22 22 20 19 15 15 15 16 14 12 10 7 4 3 3 2 2 2 2 1 2 4 2 3 4
7 4 4 4 7 9 16 6 5 6 13 15 19 19 17 17 20 17 17 19 20 19 20 19 21 21 21 21 19 18 18 16 16 14 12 9 6 3 2 4 4 3 1 3 2 1 3 4 4
1 3 2 4 8 6 11 4 12 10 14 17 18 17 16 17 19 23 23 22 22 21 19 20 21 22 24 24 21 19 19 17 16 14 13 10 8 6 5 4 4 5 1 4 6 4 6 5 6
4 1 3 2 10 4 14 15 13 11 16 17 18 16 16 18 23 23 22 21 20 19 22 21 21 23 26 24 22 19 17 17 15 14 13 12 12 8 7 6 4 5 5 5 5 5 4 5 6
1 5 3 6 5 7 13 7 9 10 15 17 17 16 16 16 19 22 24 24 25 24 23 24 26 24 28 24 21 20 20 20 17 16 14 12 12 11 10 8 6 7 4 3 5 4 4 5 7
7 6 3 4 10 11 15 8 3 11 16 17 17 16 16 16 19 26 26 26 25 26 27 25 26 24 25 22 23 19 18 19 20 20 18 14 11 12 11 9 8 7 6 5 5 6 5 6 7
2 4 7 4 4 9 16 18 11 11 14 16 17 17 18 18 22 21 23 24 23 22 25 29 28 30 26 21 17 17 18 18 18 19 19 16 14 15 13 10 9 8 7 6 6 6 6 6 6
2 4 2 2 2 9 12 18 20 12 19 22 21 18 19 19 16 18 20 20 23 27 32 27 32 30 30 24 23 16 15 13 13 15 17 16 15 15 14 11 9 7 6 7 7 7 5 5 7
3 5 5 3 2 1 2 6 9 10 16 17 19 20 18 20 18 18 18 21 22 24 27 29 34 31 32 30 20 16 13 13 13 13 16 18 16 14 14 12 10 7 6 7 9 8 8 8 6
6 11 7 7 7 6 6 6 5 8 10 16 20 20 22 22 20 19 20 21 25 28 23 28 33 30 32 30 23 21 17 16 16 17 16 16 16 15 15 15 13 10 8 8 7 8 7 9 9
3 5 6 5 8 4 7 5 5 4 7 15 19 24 25 25 24 22 22 28 28 23 25 29 27 25 29 28 24 21 18 13 10 13 15 14 16 16 16 15 14 11 9 10 9 6 8 9 8
6 4 3 2 3 8 10 9 7 6 6 6 14 21 25 26 25 24 28 26 25 22 20 21 27 27 28 28 26 23 19 14 12 12 11 12 12 13 14 14 15 10 5 8 11 5 7 12 11
4 5 5 7 7 10 2 6 11 8 13 14 14 12 18 22 22 23 22 24 26 24 23 23 24 24 27 27 24 23 23 16 14 15 14 11 9 9 9 9 11 4 3 5 6 4 6 7 9
5 4 7 9 10 9 4 5 5 6 11 11 10 12 12 19 21 24 24 27 28 26 25 24 25 22 26 26 23 22 21 17 15 13 12 9 6 5 7 7 5 1 1 2 1 5 4 5 8
3 6 2 2 2 4 4 4 11 7 13 13 12 8 12 18 21 25 22 24 21 13 10 4 2 13 25 23 21 21 17 14 12 10 10 10 7 3 4 5 3 5 6 6 7 6 3 5 7
5 4 3 1 7 10 5 4 5 10 12 9 12 9 11 11 14 13 11 11 16 23 25 23 17 13 18 21 21 15 12 9 8 8 7 6 6 5 2 4 6 9 9 7 6 3 4 5 5
4 3 1 2 3 7 9 6 4 10 10 13 9 7 9 8 2 9 9 20 24 24 26 28 38 20 26 15 15 11 8 6 6 7 6 6 4 3 7 9 11 10 7 4 4 3 3 4 5
3 2 2 4 3 2 4 9 4 9 11 11 10 5 4 1 6 12 15 21 24 23 19 21 26 15 13 6 13 13 9 8 9 8 7 7 12 14 13 11 8 5 3 4 4 4 3 5 7
Wind_Direction
153 140 136 194 200 144 87 67 344 76 102 70 131 195 129 56 1 51 135 158 147 148 149 148 146 140 131 121 111 104 100 97 94 91 87 87 88 81 81 79 83 75 75 72 78 81 85 115 124
143 131 119 113 123 115 98 154 264 63 106 109 97 107 86 91 79 121 139 152 154 150 150 147 144 138 131 124 117 112 108 104 98 92 89 92 94 91 94 84 82 76 75 73 72 73 82 109 121
129 78 273 59 80 80 86 169 126 114 107 145 109 57 62 78 121 145 149 153 154 150 146 144 145 143 137 129 121 115 110 103 98 94 92 93 94 95 96 96 86 80 76 73 73 75 81 98 114
132 152 116 21 91 139 184 146 137 129 86 68 108 76 89 130 147 164 151 152 151 148 145 157 149 144 138 131 124 120 113 107 100 93 89 89 88 89 88 84 79 76 71 65 66 71 75 88 105
48 48 90 98 262 268 215 154 150 135 102 104 75 113 106 78 138 146 149 153 152 149 149 152 150 144 137 131 127 124 120 113 107 101 95 94 91 89 87 84 79 73 64 62 66 75 79 86 90
103 294 142 168 220 240 167 157 143 142 116 123 114 128 114 114 137 146 152 152 152 150 151 150 151 147 144 137 135 131 125 117 112 106 100 98 96 94 92 88 80 73 68 64 65 68 80 80 80
146 154 120 166 245 246 166 164 157 140 128 118 133 132 108 152 147 148 151 151 152 153 152 152 155 155 151 142 141 137 130 123 115 108 103 100 96 91 89 89 84 83 75 66 64 63 69 86 91
126 130 154 219 237 250 158 156 149 137 105 128 153 167 166 162 150 148 149 151 154 158 164 163 162 163 156 149 148 144 140 135 125 114 108 103 96 90 87 85 98 93 77 59 56 61 70 83 85
167 183 114 210 229 95 162 170 128 100 137 141 144 147 134 146 148 148 155 161 165 173 176 173 175 172 164 159 160 155 153 148 143 134 125 113 108 98 90 94 100 103 89 64 53 57 81 95 85
184 210 176 213 236 221 181 187 145 134 153 138 97 106 134 148 158 163 171 176 179 183 184 183 184 180 174 171 168 169 170 169 163 158 151 135 131 122 120 111 101 95 70 50 43 42 62 127 110
166 184 201 218 232 201 172 179 158 137 182 194 162 152 154 158 171 176 180 185 185 185 187 189 190 188 182 179 179 182 179 175 175 173 169 166 158 156 134 167 144 130 77 83 35 24 51 161 147
185 239 236 308 155 170 178 160 156 156 123 190 163 164 163 170 179 187 185 187 187 191 194 191 192 194 191 188 189 192 187 184 185 188 189 191 201 233 239 213 238 257 248 73 41 35 41 141 158
209 219 214 254 192 203 164 192 174 172 95 140 149 166 178 183 190 194 192 192 188 194 196 198 193 195 194 196 197 194 197 193 190 191 195 204 225 298 276 256 250 260 300 283 32 42 119 150 180
184 220 287 298 228 209 188 174 194 115 132 145 159 177 185 195 194 193 201 200 197 195 201 199 200 200 197 199 200 201 201 199 197 201 206 214 231 274 261 256 265 270 312 222 176 290 189 190 209
177 212 155 32 158 176 173 192 221 140 151 161 179 184 191 204 199 206 206 207 201 200 199 202 201 204 202 202 204 205 207 206 206 209 212 221 231 236 237 255 271 277 298 205 218 203 210 213 227
192 169 224 116 173 167 193 225 204 159 166 175 190 191 199 206 212 213 212 214 212 206 204 203 202 207 207 206 206 210 213 214 218 219 225 233 244 238 222 236 250 244 251 221 196 212 216 226 242
91 195 176 156 193 169 202 234 215 176 190 186 191 198 205 210 218 221 219 218 214 211 207 206 206 207 210 210 210 215 219 221 226 229 233 241 249 242 225 232 233 241 254 207 194 220 230 244 247
187 171 158 163 192 191 194 231 200 192 197 204 201 201 206 215 222 218 219 221 221 217 217 213 211 212 212 212 215 221 228 230 233 234 232 236 237 227 226 228 234 237 237 230 223 224 233 234 242
125 159 162 161 183 181 212 225 221 201 213 214 213 210 211 219 222 222 221 218 218 220 219 217 216 217 211 207 206 223 228 233 237 234 231 226 228 220 222 223 225 221 224 234 247 241 237 245 238
150 146 213 307 247 215 214 229 236 209 217 216 216 215 216 222 224 221 221 214 214 216 220 217 222 220 215 212 207 211 216 228 230 232 229 226 217 218 225 224 224 226 231 250 244 235 231 238 223
198 211 181 147 49 288 334 259 241 227 235 227 230 227 226 225 222 230 221 214 216 217 218 216 223 217 219 217 211 211 219 223 227 232 227 220 220 223 229 222 221 213 228 244 256 231 231 259 256
216 211 208 157 181 229 202 239 244 234 245 220 223 219 222 227 224 230 227 218 215 221 217 219 220 214 217 214 204 203 209 215 224 231 228 230 229 223 225 226 210 209 225 235 238 246 234 234 250
200 137 193 177 205 201 197 249 228 226 226 225 221 220 221 220 225 221 225 228 223 219 214 219 215 210 211 209 204 205 217 227 232 236 242 238 232 225 222 224 228 208 235 248 242 239 255 248 253
131 126 82 98 173 229 218 228 225 226 230 250 234 223 221 217 221 225 223 228 228 221 211 207 211 211 210 210 208 210 220 227 229 225 229 237 232 222 220 228 231 239 251 275 262 268 275 276 268
206 179 205 216 217 246 129 213 254 234 238 239 261 247 228 222 219 219 214 214 216 210 201 204 206 201 211 215 215 218 226 225 232 236 239 221 224 222 212 217 228 210 274 311 269 303 305 282 268
185 212 236 228 228 239 142 221 236 258 274 251 257 274 263 223 217 215 211 208 209 204 197 199 201 194 202 209 215 218 224 222 227 235 237 225 200 197 185 189 224 225 114 84 255 41 351 316 293
141 221 335 159 86 253 246 252 277 274 260 260 268 270 253 234 222 221 217 208 211 196 164 176 244 197 204 198 206 213 215 214 213 216 215 203 205 204 203 219 203 115 94 90 68 54 5 301 295
242 131 205 217 239 251 222 247 253 280 273 271 273 304 313 286 242 224 211 173 131 130 123 110 92 319 231 195 199 197 203 202 204 207 169 163 172 175 177 155 115 84 70 60 50 21 328 305 304
158 192 174 277 252 265 270 260 230 272 291 287 282 307 320 329 158 141 135 136 140 135 129 120 142 228 324 156 161 154 169 173 157 147 159 153 161 142 127 105 92 90 82 60 44 39 13 338 331
311 305 206 256 241 256 294 266 222 266 282 285 289 302 13 34 153 143 146 145 132 129 128 119 132 129 213 217 143 131 146 156 143 132 143 134 120 115 110 100 89 81 62 30 27 32 358 310 307